GFSWCAN_con_sbcape_231.txt.gz
CAPE
1 2 2 2 2 2 2 2 3 4 5 5 6 4 1 0 0 0 0 0 0 0 0 0 0 0 0 0 0 0 0 0 0 0 0 0 0 0 0 0 0 0 0 0 0 0 0 31 245 463 41 46 74 40
4 1 2 2 2 2 3 3 4 5 6 5 8 3 8 3 1 0 0 0 0 0 0 0 0 0 0 0 0 0 0 0 0 0 0 0 0 0 0 0 3 2 0 28 0 12 19 6 3 1 2 5 7 6
7 5 3 3 3 3 4 5 7 7 9 8 12 6 7 7 1 0 0 0 0 0 0 0 0 0 0 0 0 0 0 0 0 0 0 0 0 0 0 1 0 3 3 18 8 82 32 0 0 0 0 8 1 6
2 5 5 4 5 5 6 7 8 8 8 10 10 11 14 7 0 0 0 0 0 0 0 0 0 0 0 0 0 0 0 0 0 0 0 0 0 0 0 0 0 4 17 10 7 10 3 1 0 0 0 2 2 2
5 5 5 5 6 7 9 7 8 8 6 9 14 31 12 0 0 0 0 0 0 0 0 0 0 0 0 0 0 0 0 0 0 0 0 0 0 0 0 0 0 2 4 3 7 1 0 1 0 0 0 7 2 6
6 7 6 7 8 8 7 7 8 7 9 13 25 9 0 0 0 0 1 0 0 0 0 0 0 0 0 0 0 0 0 0 0 0 0 0 0 0 0 0 0 0 0 0 1 0 0 0 0 0 9 1 2 6
6 6 7 7 6 5 6 3 6 10 12 6 0 0 0 0 0 0 0 0 0 0 0 0 0 0 0 0 0 0 0 0 0 0 0 0 1 0 0 0 0 0 0 0 0 0 0 1 2 0 0 0 2 21
4 4 3 2 2 3 4 5 3 1 4 0 0 0 0 0 0 0 0 0 0 0 0 0 0 0 0 0 0 0 0 0 1 1 0 0 3 0 2 0 0 0 0 0 0 0 0 0 0 1 0 0 3 58
1 1 2 2 3 3 4 5 1 0 0 0 0 0 0 0 0 0 0 0 0 0 0 0 0 0 0 0 0 0 0 20 3 5 3 0 3 2 0 0 0 0 0 0 0 0 1 1 0 1 0 7 21 13
1 2 1 0 0 2 0 0 0 0 0 0 0 0 0 0 0 0 0 0 0 0 0 0 0 0 0 0 0 13 0 24 41 30 0 3 8 0 0 0 0 0 0 0 2 8 6 7 10 2 0 0 10 50
2 1 2 1 1 0 0 0 0 0 0 0 0 0 0 0 0 0 0 0 0 0 0 0 0 0 0 0 13 0 40 8 26 27 32 21 16 0 0 0 0 0 1 11 16 13 19 6 7 7 2 4 33 49
0 0 0 0 0 0 0 0 0 0 0 0 0 0 0 0 0 0 0 0 0 0 0 0 0 0 0 0 14 0 62 13 29 5 36 26 0 0 0 0 0 1 13 22 6 4 1 6 0 0 20 53 44 6
0 0 0 0 0 0 0 0 0 0 0 0 3 5 5 3 4 1 2 8 0 0 0 0 0 3 0 11 56 89 67 62 14 38 16 1 0 0 0 0 3 8 11 18 24 21 13 7 13 19 42 26 13 0
0 0 0 0 0 0 0 0 0 0 2 44 14 0 9 5 0 0 4 3 0 0 0 0 14 22 40 92 151 79 54 54 31 32 8 1 0 0 0 1 0 2 5 10 12 9 11 14 10 2 1 2 0 0
0 0 0 0 0 0 0 0 0 0 6 13 31 15 25 26 45 40 45 51 6 5 40 58 11 31 34 66 81 29 26 40 21 1 0 0 1 0 0 1 1 2 4 16 27 8 8 7 9 9 3 0 0 0
0 0 1 0 0 0 0 0 0 1 3 7 0 7 5 20 14 14 16 14 40 5 46 49 19 19 27 26 23 21 27 1 0 0 0 1 0 0 0 0 0 0 0 14 5 32 10 5 2 8 7 4 0 0
0 1 0 0 0 0 0 0 7 4 0 2 16 15 10 16 15 31 24 34 33 19 7 2 5 4 8 13 11 11 13 3 6 4 1 0 0 0 0 0 0 0 3 5 10 39 15 6 6 14 12 19 10 9
2 9 0 0 0 0 0 3 20 6 13 29 42 34 32 26 33 21 19 31 34 5 2 5 6 3 4 4 4 15 7 6 8 13 12 2 0 0 0 0 0 0 4 14 18 13 22 46 54 17 11 36 42 54
1 2 0 0 0 0 2 4 20 20 28 46 48 53 34 19 2 1 1 23 43 7 5 9 6 6 3 7 25 27 21 16 20 19 19 11 17 18 16 3 2 0 0 0 1 6 12 44 63 58 36 21 42 30
0 0 0 0 0 9 0 0 12 29 51 43 60 89 39 22 0 0 0 3 4 1 3 6 13 10 9 4 6 2 22 21 8 18 21 12 12 37 60 18 7 0 0 0 1 4 28 13 8 38 100 154 120 76
0 0 0 0 0 1 1 0 4 0 5 33 30 31 28 10 0 0 0 0 0 3 8 3 3 3 0 0 0 12 24 10 0 0 1 23 18 39 28 20 23 8 4 0 4 3 8 26 16 59 86 109 72 77
0 0 0 0 0 10 34 1 13 0 1 5 17 7 31 49 17 0 0 0 6 6 5 13 5 0 10 5 0 1 0 9 12 5 7 7 39 55 41 13 19 58 37 30 30 41 25 16 15 15 16 0 0 7
0 0 0 2 6 0 2 0 3 0 0 0 0 0 11 13 3 0 0 0 0 0 0 0 0 0 4 0 0 0 1 19 13 34 24 9 4 1 4 2 18 44 23 3 9 33 42 1 4 39 41 45 51 35
0 0 5 10 3 0 21 80 13 12 0 0 0 1 0 0 0 0 1 20 1 0 1 3 18 23 29 49 50 16 0 14 7 0 0 8 15 4 3 1 6 15 10 0 13 37 42 45 4 40 38 55 66 63
3 0 5 0 6 5 0 127 83 86 118 7 29 2 0 0 0 0 0 0 0 0 0 0 18 31 6 4 2 1 0 1 19 25 0 0 0 0 0 0 0 0 0 1 15 30 36 35 40 39 38 39 49 61
3 0 0 2 4 26 237 164 206 239 136 84 70 0 0 0 0 0 0 0 0 0 0 0 0 0 0 1 10 8 6 0 0 9 0 0 0 1 1 2 6 0 0 3 22 35 38 44 43 28 21 6 0 21
0 23 26 2 97 181 302 210 64 65 83 84 0 0 0 15 30 15 0 0 0 0 0 0 0 1 2 9 0 0 0 0 0 0 0 0 0 0 0 0 0 0 0 0 1 11 14 12 26 15 14 20 18 14
0 54 211 3 150 11 0 0 10 11 6 0 0 0 13 28 33 0 0 0 0 0 0 0 0 0 0 0 0 0 0 0 0 0 0 0 0 0 0 0 0 0 0 0 0 0 0 6 22 41 24 46 33 80
0 110 46 0 0 0 0 0 0 0 0 0 0 0 0 0 0 0 0 0 0 0 0 0 0 0 0 0 0 0 0 0 0 0 0 0 0 0 0 0 0 0 0 0 0 0 4 2 5 5 8 14 18 9
80 26 0 0 0 0 0 0 0 0 0 0 0 0 0 0 0 0 0 0 0 0 0 0 0 0 0 0 0 0 0 0 0 0 0 0 0 0 0 0 0 0 0 0 0 0 0 0 0 0 2 13 25 19
0 0 0 0 0 0 0 0 0 0 0 0 0 0 0 0 0 0 0 0 0 0 0 0 0 0 0 0 0 0 0 0 0 0 0 0 0 0 0 0 0 0 0 0 0 0 0 0 0 0 1 17 30 7
0 0 0 0 0 0 0 0 0 0 0 0 0 0 0 0 0 0 0 0 0 0 0 0 0 0 0 0 0 0 0 0 0 0 0 0 0 0 0 0 0 0 0 0 0 0 0 0 2 6 13 22 18 12
0 0 0 0 0 0 0 0 0 0 0 0 0 0 0 0 0 0 0 0 0 0 0 0 0 0 0 0 0 0 0 0 0 0 0 0 0 0 0 0 0 0 0 0 0 0 0 0 0 0 1 0 0 0

GFSWCAN_con_sbcape_234.txt.gz
CAPE
2 1 6 4 4 3 3 3 3 4 4 6 5 5 8 5 2 0 0 0 5 37 0 0 0 0 0 0 0 0 0 0 0 0 21 0 0 0 0 10 3 1 3 0 0 0 0 175 208 384 31 75 208 185
3 5 9 10 6 4 3 3 3 4 5 7 7 8 10 7 12 0 1 0 0 9 0 0 0 0 0 0 0 0 0 0 0 3 21 0 0 2 0 7 0 0 0 100 0 283 295 268 221 2 0 3 27 73
9 7 5 6 5 5 5 5 6 8 9 9 12 11 15 13 19 0 1 1 22 33 0 0 0 0 0 0 0 0 0 0 0 0 0 17 0 0 0 0 5 1 2 3 2 20 68 253 120 0 0 0 0 21
2 5 5 6 6 5 6 8 9 9 9 10 12 17 6 17 14 5 7 15 0 5 2 0 0 0 0 0 0 0 0 0 0 0 0 7 0 0 0 26 20 12 4 3 7 12 93 259 159 1 0 1 0 6
6 6 6 6 7 8 10 10 10 7 9 10 13 7 17 15 0 2 14 0 0 7 3 0 0 0 0 0 0 0 0 0 0 0 0 0 0 0 0 0 0 0 1 0 1 24 124 189 74 0 22 3 0 8
4 5 7 7 8 8 8 9 6 5 8 7 11 23 5 1 0 4 37 0 0 0 2 0 0 0 0 0 0 0 0 0 0 0 0 0 0 0 2 0 0 0 0 0 5 2 1 4 0 0 24 0 0 6
3 6 7 6 6 6 5 3 6 8 14 7 6 3 1 0 1 35 27 0 0 0 10 0 1 0 0 0 0 0 0 0 0 0 0 0 0 0 0 8 0 0 0 0 0 3 13 1 1 5 52 9 17 186
1 1 1 2 2 5 4 2 3 4 3 0 0 0 0 0 0 13 0 0 0 34 16 1 13 0 0 5 3 0 9 8 8 24 0 8 0 0 12 0 0 0 0 0 0 0 0 3 4 4 31 70 176 67
0 1 0 0 0 1 1 5 4 0 0 0 0 0 0 2 41 0 0 0 0 13 42 16 27 31 0 20 20 2 22 30 23 36 35 6 15 9 5 2 0 0 0 0 0 0 0 0 0 1 36 6 105 136
1 0 0 0 0 1 0 0 0 0 0 0 0 10 28 6 0 0 2 0 0 0 2 72 3 23 0 8 18 46 24 40 32 23 22 17 13 10 2 1 2 0 0 0 0 6 10 13 20 16 57 6 66 93
0 0 0 1 1 0 0 0 0 0 0 12 50 33 5 0 4 12 10 32 4 5 0 16 27 13 0 47 64 50 56 56 51 38 21 34 14 14 7 3 0 0 1 5 13 29 33 22 39 31 32 33 38 73
0 0 0 0 0 0 0 0 0 1 21 20 15 0 5 36 19 31 42 28 39 53 7 4 39 68 2 48 74 32 57 82 49 35 44 23 28 7 4 4 0 3 7 19 25 22 13 23 14 28 52 59 34 66
0 0 0 0 0 0 0 0 0 0 0 52 52 26 30 22 56 11 86 36 43 32 34 24 11 43 8 65 70 65 61 72 76 49 42 22 7 3 9 3 5 13 2 26 22 23 11 5 2 9 48 55 51 52
0 0 0 0 0 0 0 0 0 0 47 91 28 28 29 12 15 32 21 55 97 70 22 30 100 84 86 115 132 68 85 131 76 25 21 102 6 8 8 7 8 17 4 24 15 19 12 19 26 18 40 42 49 0
0 0 0 0 0 0 0 0 0 33 63 75 52 25 22 30 24 22 21 51 38 27 14 50 79 98 190 114 149 107 91 61 56 1 70 43 14 14 11 12 14 23 18 34 33 23 16 12 28 4 2 0 0 0
0 0 1 0 0 0 0 0 6 56 8 12 1 16 16 22 25 23 21 38 61 50 21 41 14 24 31 66 46 50 40 85 50 22 53 12 19 18 20 21 30 27 27 40 33 34 18 12 16 16 19 6 3 0
0 5 0 0 0 0 0 0 64 13 14 9 51 54 50 50 38 42 18 33 42 19 28 4 15 9 6 17 8 9 39 59 20 3 5 12 33 26 38 44 44 57 53 53 42 54 37 21 17 15 18 25 8 15
4 4 0 0 0 0 27 75 49 30 41 63 53 40 61 70 36 53 7 74 64 19 7 4 5 5 10 17 19 11 14 16 18 17 30 38 70 110 107 85 86 83 69 65 73 69 29 29 15 27 38 30 41 40
3 1 0 0 1 24 57 86 87 40 67 75 60 55 79 82 91 54 68 84 51 19 6 9 9 16 12 6 13 17 33 34 12 19 45 67 91 85 64 69 75 59 35 41 82 60 85 102 66 39 17 23 37 43
0 0 0 0 0 29 46 76 94 58 56 68 63 24 33 30 11 26 13 8 13 6 15 11 8 15 21 27 45 37 40 45 40 53 86 126 84 46 45 25 17 44 33 82 68 41 55 55 104 156 106 113 118 69
0 0 0 0 16 38 41 38 44 34 36 45 58 47 23 33 38 45 49 14 13 12 24 34 47 57 64 71 50 0 2 32 76 51 42 32 7 34 18 22 16 5 15 35 33 25 4 35 36 64 67 77 112 130
0 0 1 1 15 122 118 143 92 13 40 18 35 41 34 21 12 5 29 43 19 25 18 54 60 68 100 110 93 88 76 44 53 20 14 8 50 40 30 19 24 15 16 23 24 29 46 55 55 44 32 13 9 73
0 0 3 12 59 1 59 59 192 147 122 74 45 16 20 20 11 0 7 29 27 25 25 63 86 81 81 96 99 72 65 76 74 77 77 66 55 42 42 41 53 43 45 65 57 40 49 14 22 59 53 41 65 62
0 1 16 22 30 29 116 239 373 363 326 168 184 119 58 9 4 6 8 20 26 14 27 60 17 25 26 23 18 26 27 25 23 24 18 17 21 27 32 38 52 57 42 55 59 60 73 60 22 43 38 57 57 47
16 1 5 1 33 49 40 271 365 511 309 198 307 239 127 0 34 3 5 5 11 16 17 45 36 36 44 40 31 28 53 35 26 27 23 40 39 43 43 45 55 70 72 73 62 61 52 47 39 47 45 34 57 53
3 33 30 235 277 221 396 200 212 186 200 298 227 184 36 63 61 68 36 0 2 4 5 24 34 28 31 40 44 45 45 33 44 25 16 28 34 35 48 58 58 53 56 60 54 70 60 66 82 61 45 11 0 32
7 450 396 341 597 670 530 533 478 396 212 134 229 136 105 100 64 150 25 0 0 0 5 15 18 36 29 20 14 14 29 34 41 22 5 2 0 0 9 21 32 29 25 34 50 49 50 73 84 82 64 60 39 44
22 389 410 293 487 536 159 40 88 130 172 211 148 147 103 101 135 78 28 0 0 0 0 7 14 20 32 34 3 1 0 0 1 0 0 0 0 0 0 0 0 0 1 24 56 81 100 118 104 67 144 94 136 87
28 417 544 121 0 2 6 0 0 0 0 10 27 25 64 25 7 4 0 0 0 0 0 0 9 20 11 0 0 0 0 0 0 0 0 0 0 0 0 0 0 0 0 0 0 2 82 80 88 119 139 158 149 140
395 440 81 0 0 0 0 0 0 0 0 0 0 0 0 0 0 0 0 0 0 0 0 4 6 14 5 0 0 0 0 0 1 0 3 5 5 0 0 0 1 2 4 15 18 6 0 0 20 37 45 101 104 71
214 66 0 0 0 0 0 0 0 0 0 0 0 0 0 0 0 0 0 0 0 2 2 0 0 1 0 0 0 0 0 0 0 0 5 10 7 9 10 7 7 11 15 22 31 33 28 7 2 30 56 64 51 31
62 0 0 0 0 0 0 0 0 0 0 0 0 0 0 0 0 0 0 0 0 0 0 0 0 0 0 0 0 0 0 0 0 0 0 1 12 12 13 16 11 2 5 12 31 55 44 37 28 23 15 19 28 22
0 0 0 0 0 0 0 0 0 0 0 0 0 0 0 0 0 0 0 0 0 0 0 0 0 0 0 0 0 0 0 0 0 0 0 0 0 0 0 7 2 3 4 11 13 14 20 22 24 25 20 16 12 8

GFSWCAN_con_sbcape_237.txt.gz
CAPE
11 10 11 11 8 10 11 9 5 5 6 5 5 4 5 8 1 1 5 0 3 76 8 0 0 0 19 37 30 0 0 3 0 6 68 4 1 10 0 6 19 14 23 3 0 3 37 218 99 165 298 383 202 110
11 13 12 10 7 5 6 9 6 4 5 6 5 5 9 11 5 0 5 5 5 41 59 1 0 0 0 7 8 1 36 1 12 31 78 15 0 11 3 48 21 0 1 94 207 354 388 284 375 236 222 242 230 156
7 3 3 4 5 5 6 7 6 6 8 8 6 8 13 15 9 0 11 4 31 86 91 15 0 0 8 35 19 17 15 34 0 1 0 0 0 0 6 1 86 16 28 83 0 7 58 68 223 175 195 308 207 79
6 6 6 7 7 7 7 8 8 9 10 9 9 11 16 5 9 1 25 10 52 118 65 3 2 18 10 50 31 42 46 0 0 0 0 0 0 0 0 35 83 165 242 119 111 97 54 164 118 138 139 287 313 175
6 5 4 5 7 8 9 9 10 10 8 9 12 13 8 10 6 1 25 62 60 58 45 21 8 7 42 46 18 4 0 0 0 0 0 0 0 0 0 0 15 64 131 123 72 35 114 310 297 176 96 308 441 374
3 3 4 5 6 7 8 9 8 7 8 9 9 9 9 5 0 34 63 113 15 6 25 19 11 18 10 5 0 5 0 0 6 11 10 5 1 0 0 43 93 12 17 0 39 1 13 31 31 3 119 333 466 666
1 3 3 3 3 4 4 3 4 5 6 6 4 3 1 0 42 97 74 33 0 11 92 39 37 6 0 0 0 0 0 0 0 2 0 1 0 0 0 251 142 13 0 0 0 0 0 5 37 50 196 336 410 658
1 3 2 3 3 6 6 8 9 5 2 1 0 0 0 0 0 68 7 0 0 95 68 49 42 22 1 22 38 4 2 0 0 5 7 2 15 0 1 52 78 2 0 0 0 0 0 13 25 96 144 303 478 457
0 2 1 3 3 6 5 1 1 1 0 0 0 0 0 4 120 35 0 0 86 159 168 68 93 76 2 104 90 29 64 38 55 9 17 7 20 11 5 96 44 0 0 1 1 0 0 0 4 10 18 298 344 460
0 0 0 0 0 0 0 0 0 0 0 0 1 79 81 104 0 1 94 91 89 87 124 154 67 125 27 71 71 43 49 45 46 31 43 23 15 19 12 23 15 5 1 1 0 1 8 10 12 18 15 167 244 443
0 0 0 0 0 0 0 0 0 0 0 29 112 59 12 0 78 138 94 103 55 38 37 56 96 56 68 59 67 56 39 34 48 43 46 19 66 28 75 4 9 9 2 0 0 3 11 24 9 16 35 27 98 226
0 0 0 0 0 0 0 0 0 0 91 54 12 25 33 110 98 92 108 123 116 96 39 58 103 93 51 103 121 57 47 104 66 70 27 23 128 313 21 7 11 10 4 1 5 20 25 7 31 49 27 68 115 159
0 0 0 0 0 0 0 0 0 0 0 133 81 18 59 50 244 49 70 93 131 52 101 104 140 126 59 127 44 88 75 127 146 53 46 115 560 75 6 9 13 9 0 4 7 20 26 28 40 53 65 64 74 93
0 0 0 0 0 0 0 0 0 0 20 152 59 11 40 19 12 85 111 202 247 362 357 377 286 73 57 60 200 95 142 215 95 78 102 462 240 13 11 16 17 11 8 8 14 25 23 39 42 40 40 47 47 38
0 0 0 0 0 0 0 0 0 55 292 108 39 5 38 37 52 49 71 125 84 147 201 209 315 295 269 206 246 162 179 75 149 112 149 554 138 13 19 15 19 19 17 21 20 35 23 41 27 42 39 42 0 0
0 0 0 0 0 0 0 0 54 180 102 38 26 20 18 7 16 21 23 37 10 16 78 50 9 0 89 164 113 88 84 471 104 91 496 244 51 27 46 20 30 23 27 21 32 33 9 8 4 23 18 9 8 0
0 9 0 0 0 0 0 1 221 66 59 50 39 24 36 48 53 30 37 13 20 15 40 7 12 7 9 11 10 8 21 13 26 206 120 142 79 46 60 48 19 35 46 40 21 25 19 12 13 15 10 4 1 1
2 0 0 0 0 6 90 210 81 38 30 52 72 50 101 85 111 77 56 273 132 36 10 4 5 5 8 18 18 6 14 12 8 16 31 75 64 61 78 84 59 48 59 53 53 25 25 23 7 2 17 42 23 28
7 1 0 0 0 11 105 55 72 35 38 65 106 117 193 115 137 190 236 220 27 14 8 8 17 24 16 9 8 9 15 19 16 5 5 7 16 33 78 89 74 75 80 94 104 82 64 43 55 25 18 43 46 28
0 0 0 0 0 97 47 48 76 46 34 37 86 52 39 54 30 0 2 3 8 30 12 7 7 14 24 35 36 37 42 23 1 4 24 51 67 65 50 25 23 41 57 74 61 55 116 114 139 67 53 62 41 48
0 0 0 0 147 227 82 37 40 56 44 51 54 34 31 55 45 47 103 48 17 33 44 44 80 110 75 48 10 36 47 31 50 28 41 58 65 101 37 23 34 22 28 12 21 5 6 131 88 102 56 116 113 65
8 0 20 38 199 228 246 177 184 35 127 38 102 40 39 43 50 72 96 33 5 2 30 83 272 229 215 103 87 18 5 3 4 2 1 1 23 33 18 19 18 24 41 59 42 39 41 29 53 51 72 64 34 150
0 0 19 116 198 52 163 349 303 265 190 167 110 91 88 119 54 39 41 48 43 59 78 97 101 87 84 123 89 72 73 63 30 26 16 31 64 53 79 78 67 73 80 79 76 40 46 6 19 43 56 41 82 84
0 59 137 85 159 282 341 303 375 400 414 390 288 145 107 98 67 62 37 40 29 27 44 44 46 46 56 81 61 70 94 82 69 95 119 97 54 63 58 54 89 49 89 77 97 135 56 71 7 57 59 99 71 86
134 10 237 527 159 211 403 536 615 511 212 273 236 267 217 146 103 56 26 37 26 38 41 45 57 65 58 52 49 38 59 40 55 60 66 55 67 52 39 37 45 91 74 91 159 152 155 86 97 140 124 80 90 52
30 172 123 578 585 595 361 259 184 168 130 125 204 279 242 172 92 88 76 11 18 23 51 59 54 52 46 53 50 46 36 53 52 42 38 46 51 61 65 52 43 48 85 176 219 102 143 143 175 181 79 27 0 45
58 500 749 712 671 582 569 341 213 200 137 101 149 147 179 73 71 117 6 2 6 6 15 35 34 47 47 47 51 39 35 48 21 39 24 17 7 23 49 82 74 74 64 64 153 193 213 231 192 179 130 74 54 51
276 501 356 392 299 243 151 135 86 99 146 121 119 89 55 61 102 76 0 0 2 2 9 9 33 35 24 14 11 9 15 14 2 2 0 0 0 0 0 2 1 0 40 69 82 133 238 254 167 227 255 261 130 66
455 493 336 142 25 37 44 10 12 2 0 5 65 104 115 101 33 15 0 0 0 1 4 7 15 22 24 2 1 4 3 7 2 0 1 1 1 0 0 0 0 19 26 43 0 8 152 72 55 190 128 159 277 198
323 286 176 10 18 28 5 0 0 0 0 0 5 4 0 0 0 0 0 0 0 0 2 7 11 7 1 1 0 0 0 2 2 6 15 15 8 7 15 23 43 52 51 51 27 22 0 10 39 63 70 36 231 104
260 176 68 23 31 7 0 0 0 0 0 0 0 0 0 0 0 0 0 0 0 1 4 9 5 18 4 1 0 0 4 3 1 5 17 17 15 26 33 38 56 64 68 61 29 22 16 8 49 77 93 12 164 37
167 65 60 63 65 0 0 0 0 0 0 0 0 0 0 0 0 0 0 0 0 7 1 1 5 6 0 0 0 0 0 1 1 0 0 20 31 27 32 43 39 39 39 24 0 0 8 13 5 7 16 33 55 61
133 86 89 36 7 0 0 0 0 15 16 39 13 0 0 0 0 0 0 0 0 2 0 0 0 0 0 0 0 0 0 0 0 0 0 0 0 0 0 10 23 16 17 14 12 14 17 19 8 6 5 2 3 17

GFSWCAN_con_sbcape_240.txt.gz
CAPE
10 12 13 12 4 3 7 9 9 12 16 9 8 7 6 7 2 1 0 0 1 7 1 0 0 0 0 1 43 1 0 0 0 19 223 11 2 4 1 5 16 0 0 0 0 0 8 108 34 106 344 377 244 276
12 7 4 4 5 4 5 5 6 9 11 17 12 10 9 10 7 2 4 3 2 16 6 0 0 0 0 0 0 3 0 7 0 127 843 89 43 11 17 5 12 7 47 87 60 218 269 133 320 195 191 206 243 226
7 7 7 7 7 7 7 8 7 7 7 9 8 9 10 8 8 1 4 7 17 24 19 1 0 0 0 0 0 14 59 31 86 257 77 61 1 0 25 16 51 0 0 23 10 2 13 117 189 124 129 203 192 227
9 8 7 7 6 6 8 9 9 8 9 10 8 10 12 9 8 2 10 6 30 31 33 3 0 0 0 0 1 9 29 40 43 0 0 0 0 0 9 34 15 51 41 32 40 59 18 19 56 67 155 85 177 238
5 3 2 3 4 6 9 9 10 11 10 9 11 12 15 12 1 3 18 15 79 61 51 18 3 3 3 0 8 7 63 17 4 0 0 0 0 0 0 0 8 17 50 119 39 76 90 243 233 225 156 105 181 249
1 4 2 2 3 5 5 7 5 5 9 10 13 11 8 2 0 8 18 14 55 82 48 79 22 12 1 3 16 14 13 0 0 7 6 5 7 0 0 0 0 0 8 34 1 5 27 41 111 147 152 163 204 325
3 3 4 4 4 6 5 3 3 2 2 2 2 2 1 0 5 51 28 34 0 16 22 79 32 1 7 30 34 50 38 14 23 38 29 25 14 0 0 30 20 17 0 5 0 0 0 0 0 2 19 140 151 497
0 3 2 4 3 5 8 4 3 1 2 2 0 0 0 0 0 39 34 0 5 39 43 85 37 32 24 22 31 33 6 3 4 14 15 2 3 0 0 0 0 63 6 0 0 0 0 0 0 25 178 344 491 450
0 0 0 0 0 0 5 2 0 0 0 0 0 0 0 1 47 19 0 1 9 61 105 78 53 57 34 67 76 20 34 13 16 0 19 14 9 10 0 0 60 66 9 0 0 0 0 0 0 1 12 89 284 473
0 0 0 0 0 0 0 0 0 0 0 0 0 10 76 123 1 0 7 26 42 33 146 34 119 95 42 125 159 60 97 28 114 55 36 28 24 16 18 15 182 75 0 0 0 2 2 0 1 1 0 9 187 316
0 0 0 0 0 0 0 0 0 0 0 1 155 98 104 0 40 255 134 37 21 10 9 64 90 187 29 129 118 90 63 45 54 65 36 29 49 46 11 106 98 19 0 0 0 0 0 0 0 1 14 20 146 334
0 0 0 0 0 0 0 0 0 0 24 13 2 39 49 150 183 102 135 85 110 69 50 12 149 167 93 144 103 107 97 112 109 117 42 26 103 162 223 36 1 0 0 1 0 0 1 8 7 13 12 16 77 239
0 0 0 0 0 0 0 0 0 0 0 229 196 97 96 85 14 54 125 111 190 114 169 143 67 170 149 206 265 254 53 125 184 116 30 27 1116 568 466 0 0 0 0 1 0 2 7 1 2 14 34 36 101 168
0 0 0 0 0 0 0 0 0 0 3 223 73 0 19 23 120 243 231 299 342 389 374 454 182 89 178 171 198 129 101 287 160 148 59 818 936 577 193 0 0 0 1 3 5 5 11 21 21 27 40 47 56 42
0 0 0 0 0 0 0 0 0 1 188 87 89 68 48 32 30 46 94 190 69 127 255 381 368 363 274 176 284 188 158 98 201 358 159 973 947 485 130 0 0 3 3 6 4 8 12 10 29 33 35 14 34 25
0 0 0 0 0 0 0 0 26 284 286 130 71 84 51 96 74 71 44 137 10 27 174 217 125 126 95 74 142 102 140 354 276 316 1185 621 597 227 36 4 2 12 16 11 5 18 26 14 28 39 41 3 1 2
0 1 0 0 0 0 0 3 253 178 69 100 109 138 179 182 186 98 124 21 12 27 30 3 5 10 4 5 49 6 8 8 17 3 435 670 357 39 37 22 25 35 26 22 18 23 8 14 1 24 16 0 0 0
1 0 0 0 0 5 118 206 283 38 45 93 56 108 146 116 212 222 331 195 157 23 5 4 3 4 6 12 10 7 9 9 18 25 51 171 124 46 22 34 22 56 42 26 13 16 14 25 28 10 0 1 1 1
0 0 0 0 0 19 245 128 104 27 42 93 78 151 133 85 32 145 245 55 17 2 7 13 4 22 14 8 5 17 10 18 13 6 2 1 0 0 4 26 45 70 58 71 97 7 10 28 18 51 18 32 38 33
0 0 0 0 0 253 136 45 106 87 50 53 59 37 42 83 65 26 33 22 21 39 12 10 12 7 17 19 30 28 9 4 4 3 4 5 2 7 36 46 57 72 74 90 115 106 74 111 18 21 33 43 50 49
0 1 0 0 265 427 290 78 231 76 79 81 51 79 64 180 147 188 97 156 169 192 173 127 36 41 46 50 4 16 10 0 0 5 24 39 47 74 11 14 82 42 34 30 80 91 32 133 173 77 61 75 76 48
13 0 8 75 200 324 409 199 267 108 196 176 80 100 178 99 233 214 105 36 13 174 392 415 279 319 161 44 18 4 25 37 38 6 2 1 15 25 18 6 12 34 38 34 18 31 72 111 132 57 120 108 72 119
0 0 78 76 256 91 45 330 353 318 191 141 146 101 111 70 33 154 40 63 129 107 60 186 269 127 74 75 57 50 46 25 28 21 2 8 14 19 21 16 28 42 68 55 34 19 18 5 5 34 33 62 166 132
0 62 116 212 161 118 415 471 451 387 435 229 142 108 41 69 82 56 62 48 75 46 46 131 134 115 180 157 129 121 70 50 69 54 50 53 104 129 78 32 78 76 132 121 116 95 58 45 0 36 76 24 35 67
8 43 33 0 338 394 338 261 350 20 67 262 150 146 69 122 98 59 51 22 23 31 43 62 60 65 64 55 66 88 70 21 80 93 165 133 72 78 66 96 84 91 78 149 59 0 189 132 72 130 124 20 43 110
32 228 113 584 423 428 436 180 388 322 254 148 77 67 101 189 128 67 41 1 20 31 38 57 71 74 51 43 33 41 77 74 53 41 58 33 58 49 56 47 60 55 74 174 212 160 123 133 78 249 193 28 7 124
228 541 701 520 403 499 149 180 422 178 148 226 85 67 179 73 94 36 4 0 5 10 52 57 58 46 45 41 50 37 46 62 97 27 23 7 13 31 51 50 60 65 72 132 236 226 178 191 167 143 126 67 118 6
341 527 246 395 463 160 39 78 42 88 143 137 136 146 151 107 34 5 0 0 1 0 19 25 37 40 33 13 15 11 37 31 5 0 0 1 0 1 28 36 2 0 11 16 128 191 157 217 240 244 201 278 125 107
528 358 340 104 59 73 82 28 36 4 0 21 86 85 111 31 16 0 0 0 0 0 7 16 36 37 16 2 2 8 5 15 4 0 11 12 10 0 0 0 0 11 2 2 0 69 243 33 5 220 215 92 251 330
346 170 249 124 55 45 12 0 0 0 0 0 0 0 0 0 0 0 0 0 0 1 7 17 12 23 10 3 2 2 4 19 3 12 18 17 11 9 11 2 2 7 18 2 0 0 0 0 9 29 97 69 105 136
226 133 99 69 82 31 0 0 0 0 0 0 0 8 0 0 0 0 0 0 0 5 4 14 12 16 3 6 0 0 6 7 3 11 24 5 13 20 32 26 15 11 4 28 9 7 19 49 11 129 38 48 9 0
103 131 118 63 194 17 0 5 19 16 1 2 0 0 0 0 0 0 0 0 0 3 0 10 11 22 11 2 0 0 1 2 1 1 1 14 11 24 26 12 22 33 5 14 0 0 31 37 52 4 52 87 64 63
93 67 91 64 5 2 0 13 37 48 47 58 40 3 3 5 1 0 0 0 0 3 10 1 5 4 1 0 0 0 0 0 0 0 0 0 0 0 0 0 0 17 17 19 24 13 10 25 32 32 29 24 34 61

GFSWCAN_con_sbcape_246.txt.gz
CAPE
6 5 7 9 10 9 8 9 10 10 8 7 7 10 13 21 11 0 0 0 0 0 0 0 0 0 0 0 0 0 0 0 0 0 0 0 0 0 0 0 0 0 0 0 0 0 0 27 69 10 42 142 118 93
4 8 7 7 12 13 11 9 9 10 11 9 10 9 18 26 30 5 1 0 0 0 0 0 0 0 0 0 0 0 0 0 0 0 28 0 0 0 0 0 0 0 0 0 0 0 0 0 55 26 61 61 33 16
7 6 11 14 13 10 13 14 11 9 10 10 12 13 19 24 27 29 0 0 1 1 0 0 0 0 0 0 0 0 0 0 0 1 3 17 0 0 1 0 2 0 0 34 0 0 0 0 0 0 0 3 5 6
6 16 14 23 19 12 9 10 11 12 13 14 13 14 18 12 9 22 0 0 0 2 4 0 0 0 0 0 0 0 0 0 0 0 0 0 0 0 0 0 0 0 0 0 0 0 0 0 1 1 0 0 0 0
7 8 10 17 22 17 13 9 10 9 8 11 13 16 18 12 5 6 1 1 0 4 4 0 0 0 0 0 0 0 0 0 0 0 0 0 0 0 0 0 0 0 0 0 0 0 0 0 0 0 0 20 23 32
3 2 3 7 8 13 7 5 7 7 9 8 9 14 11 7 2 4 4 3 0 14 13 8 3 0 0 7 10 10 0 0 0 0 0 0 0 0 0 0 0 0 0 0 0 0 0 0 0 0 0 0 0 0
0 0 0 0 0 0 0 0 1 3 2 1 0 2 1 0 0 0 3 5 1 20 54 27 14 17 20 31 8 0 0 0 0 0 0 0 0 0 0 0 0 0 0 0 0 0 0 0 0 0 0 0 0 0
0 0 0 0 0 0 0 0 0 0 0 0 0 0 0 0 0 4 1 2 20 14 24 27 8 18 18 18 4 0 0 0 0 0 0 0 0 0 0 0 0 0 0 0 0 0 0 0 0 0 0 0 0 1
0 0 0 0 0 0 0 0 0 0 0 0 0 0 0 0 0 1 13 13 0 3 5 24 13 8 33 10 1 0 0 0 0 0 0 0 0 0 0 0 0 0 0 0 0 0 0 0 0 0 0 0 0 0
0 0 0 0 0 0 0 0 0 0 0 0 0 2 0 0 0 1 6 4 3 3 5 13 34 16 0 0 0 0 0 7 0 0 0 0 0 0 0 0 0 0 0 0 0 0 0 0 0 0 0 0 0 0
0 0 0 0 0 0 0 0 0 0 0 0 0 0 0 0 0 0 10 1 0 6 0 0 0 16 1 0 12 2 22 8 23 26 0 0 0 0 0 0 0 0 0 0 0 0 0 0 0 0 0 0 0 0
0 0 0 0 0 0 0 0 0 0 0 0 0 0 0 0 1 14 10 4 1 29 18 1 0 0 25 41 18 27 30 22 23 4 3 0 0 0 0 0 0 0 0 0 0 0 0 0 0 0 0 0 0 0
0 0 0 0 0 0 0 0 0 0 0 0 0 0 0 0 7 25 24 11 22 16 9 23 30 4 0 0 6 7 25 5 0 0 1 0 0 0 0 0 0 0 0 0 0 0 0 0 0 0 0 0 0 0
0 0 0 0 0 0 0 0 0 0 0 0 8 10 2 41 13 15 5 8 11 23 25 33 19 25 1 0 11 30 0 1 11 4 9 1 0 0 0 0 0 0 0 0 0 0 0 0 0 0 0 0 0 0
0 0 0 0 0 0 0 0 0 0 0 12 11 16 5 7 11 10 17 0 0 0 1 11 1 0 0 38 5 11 26 11 0 0 4 1 0 0 0 0 0 0 0 0 0 0 0 0 0 0 0 0 0 0
0 0 0 0 0 0 0 0 0 0 29 26 7 14 1 17 3 22 15 1 0 0 0 0 0 0 0 0 7 4 0 0 4 4 2 2 0 0 0 0 0 0 0 0 0 0 0 0 0 0 0 0 0 0
0 0 0 0 0 0 0 0 0 77 37 27 37 14 3 4 7 0 0 0 0 2 0 0 0 2 0 0 2 2 1 3 1 0 1 0 0 0 0 0 0 0 0 0 0 0 1 0 0 0 0 0 0 0
0 0 0 0 0 0 0 0 37 43 18 25 14 15 4 0 2 3 0 0 0 0 0 0 0 0 0 0 1 1 1 0 0 2 1 2 0 0 0 0 0 0 0 0 1 0 0 0 0 0 0 0 0 0
0 0 0 0 0 0 0 14 18 23 17 27 12 3 0 25 2 0 0 0 0 0 0 0 0 0 0 0 0 0 0 0 2 1 2 0 0 0 0 0 0 0 0 1 1 8 2 0 0 0 0 0 0 0
0 0 0 0 0 0 54 16 8 32 35 15 12 9 3 0 0 0 0 0 0 0 0 0 0 1 0 0 0 0 0 0 0 1 1 1 0 0 0 0 0 0 0 2 0 0 2 0 0 0 0 0 0 0
0 0 0 0 0 0 11 24 14 9 16 43 2 4 0 0 0 2 0 0 0 0 0 0 0 0 0 2 0 0 0 0 0 0 1 1 1 0 0 1 0 0 0 0 0 0 0 0 0 0 0 0 0 0
0 0 0 0 0 107 28 46 12 6 69 33 28 12 6 10 7 4 0 0 0 0 0 0 0 0 0 0 0 0 0 0 0 0 0 0 0 0 0 0 6 7 8 7 5 2 0 0 0 0 0 0 0 0
0 0 1 5 6 0 24 22 7 1 0 9 9 0 0 0 1 0 0 3 0 0 0 0 0 0 0 0 0 0 0 0 0 0 0 0 0 0 0 0 1 1 0 0 0 5 6 0 2 2 0 0 0 0
0 3 31 45 8 3 19 2 36 21 9 0 14 27 0 1 0 1 10 0 0 0 1 4 0 0 0 0 0 0 0 0 0 0 0 0 0 0 0 0 0 0 0 0 0 0 0 0 0 0 0 0 0 1
1 0 0 0 3 96 35 36 39 0 0 17 49 24 20 14 0 0 0 0 0 0 18 26 26 13 11 8 0 0 0 0 0 0 0 0 0 0 0 0 0 0 0 0 0 0 0 0 0 0 0 0 0 11
2 0 0 178 35 0 0 0 0 1 0 19 25 54 14 0 0 0 0 0 0 0 1 6 13 4 7 9 8 13 17 0 0 0 0 0 1 0 0 0 0 0 0 0 0 0 0 0 0 0 1 1 5 4
0 18 53 1 0 0 0 0 1 0 2 33 37 27 22 3 14 0 0 0 0 0 0 0 0 0 0 0 0 0 2 0 0 0 0 0 0 0 0 0 0 0 0 0 0 0 0 0 0 13 9 0 0 0
0 17 0 5 0 0 301 12 8 11 37 28 37 28 36 7 0 0 0 0 0 0 0 0 0 0 0 0 0 0 0 0 0 0 0 0 0 0 0 0 0 0 0 0 0 0 0 0 0 0 2 0 0 1
60 243 361 350 245 239 121 23 1 0 0 23 25 2 0 0 0 0 0 0 0 0 0 0 0 0 0 0 0 0 0 0 0 0 0 0 0 0 0 0 0 0 0 0 0 0 0 0 0 2 2 13 61 0
252 272 337 154 150 15 0 0 0 0 0 0 0 0 0 0 0 0 0 0 0 0 0 0 0 0 0 0 0 0 0 0 0 0 0 0 0 0 0 0 0 0 0 0 0 0 0 0 0 0 0 0 0 0
63 285 303 248 125 0 0 0 0 0 0 0 0 0 0 0 0 0 0 0 0 0 0 0 0 0 0 0 0 0 0 0 0 0 0 0 0 0 0 0 0 0 0 0 0 0 0 0 0 0 0 0 0 0
0 13 19 7 3 0 0 0 0 0 0 0 0 0 0 0 0 0 0 0 0 0 0 0 0 0 0 0 0 0 0 0 0 0 0 0 0 0 0 0 0 0 0 0 0 0 0 0 0 0 0 0 0 0
6 13 0 22 13 0 0 0 3 3 0 0 0 0 0 0 0 0 0 0 0 0 0 0 0 0 0 0 0 0 0 0 0 0 0 0 0 0 0 0 0 0 0 0 0 0 0 0 0 0 0 0 0 1